Terminal Aerodrome Forecast
Issued by NWS Upton, NY

Home | Current Version | Previous Version | Text Only | Print | Product List | Glossary On
Versions: 1 2 3 4 5 6 7 8 9 10 11 12 13 14 15 16 17 18 19 20 21 22 23 24 25 26 27 28 29 30 31 32 33 34
000
FTUS41 KOKX 222331
TAFJFK
TAF
KJFK 222331Z 2300/2406 20005KT P6SM FEW120 BKN250
     FM230700 20004KT 1SM BR SCT005 BKN250
     FM230900 21004KT 1/4SM FG SCT006 BKN250
     FM231200 20005KT 1/4SM FG BKN004 OVC025
     FM231500 20008KT 3SM BR BKN010
     FM231900 20010KT P6SM BKN030
     FM240100 20007KT 3SM BR OVC025=

USA.gov is the U.S. government's official web portal to all federal, state and local government web resources and services.